This is the latest recevied weather packets stored in our database for station/object VE4GLS. If no packets are shown the sender has not sent any weather packets the latest 10 day(s).
| Time | Temp. | Humidity | Pressure | Rain* | Wind** | Luminosity | Snow |
|---|---|---|---|---|---|---|---|
| 1777665193 | 12.78° C | 37% | 1017.2 hPa | 0 mm | - | - | - |
| 1777664856 | 12.78° C | 34% | 1017.2 hPa | 0 mm | - | - | - |
| 1777664595 | 12.78° C | 35% | 1017.2 hPa | 0 mm | - | - | - |
| 1777663994 | 12.78° C | 36% | 1017.3 hPa | 0 mm | - | - | - |
| 1777663956 | 12.78° C | 36% | 1017.3 hPa | 0 mm | - | - | - |
| 1777663393 | 12.22° C | 38% | 1017.4 hPa | 0 mm | - | - | - |
| 1777663055 | 12.22° C | 37% | 1017.4 hPa | 0 mm | - | - | - |
| 1777662793 | 12.22° C | 36% | 1017.5 hPa | 0 mm | - | - | - |
| 1777662194 | 12.78° C | 38% | 1017.6 hPa | 0 mm | - | - | - |
| 1777662156 | 12.78° C | 38% | 1017.7 hPa | 0 mm | - | - | - |
| 1777661594 | 12.22° C | 38% | 1017.7 hPa | 0 mm | - | - | - |
| 1777661255 | 12.22° C | 39% | 1017.9 hPa | 0 mm | - | - | - |
| 1777660994 | 12.22° C | 40% | 1017.9 hPa | 0 mm | - | - | - |
| 1777660394 | 11.67° C | 39% | 1017.9 hPa | 0 mm | - | - | - |
| 1777660354 | 11.67° C | 39% | 1017.9 hPa | 0 mm | - | - | - |
| 1777659794 | 11.67° C | 40% | 1018 hPa | 0 mm | - | - | - |
| 1777659456 | 11.11° C | 41% | 1018.1 hPa | 0 mm | - | - | - |
| 1777659194 | 11.11° C | 41% | 1018.1 hPa | 0 mm | - | - | - |
| 1777658594 | 11.11° C | 41% | 1018.1 hPa | 0 mm | - | - | - |
| 1777658556 | 11.11° C | 41% | 1018.2 hPa | 0 mm | - | - | - |
| 1777657994 | 11.67° C | 40% | 1018.3 hPa | 0 mm | - | - | - |
| 1777657654 | 11.11° C | 42% | 1018.4 hPa | 0 mm | - | - | - |
| 1777657394 | 11.11° C | 40% | 1018.4 hPa | 0 mm | - | - | - |
| 1777656794 | 11.11° C | 42% | 1018.5 hPa | 0 mm | - | - | - |
| 1777656754 | 11.11° C | 41% | 1018.5 hPa | 0 mm | - | - | - |
* Rain latest hour (hover to see other rain measurements)
** Current wind speed in m/s (hover to see current wind gust speed)